Weather History for Tulsa Jones, OK

Change the Weather History Date:

Tuesday, July 9, 2013

  Actual Average (KTUL) Record (KTUL)
Temperature  
Mean Temperature 87 °F 82 °F  
Max Temperature 100 °F 93 °F 107 °F (1925)
Min Temperature 75 °F 73 °F 59 °F (1952)
Cooling Degree Days 22 17  
Month to date cooling degree days 152  
Year to date cooling degree days 765  
Since 1 June cooling degree days 531  
Growing Degree Days 37 (Base 50)    
Moisture  
Dew Point 70 °F    
Average Humidity 56    
Maximum Humidity 84    
Minimum Humidity 38    
Precipitation  
Precipitation 0.00 in 0.11 in 3.80 in (1915)
Month to date precipitation 1.09  
Year to date precipitation 22.31  
Sea Level Pressure  
Sea Level Pressure 30.00 in    
Wind  
Wind Speed 6 mph (SSW)    
Max Wind Speed 15 mph    
Max Gust Speed 20 mph    
Visibility 10 miles    
Events      
T = Trace of Precipitation, MM = Missing Value Source: NWS Daily Summary

Daily Weather History Graph

Daily Weather History Graph

Search for Another Location

Airport:

Trip Planner

Search our weather history database for the weather conditions in past years. The results will help you decide how hot, cold, wet, or windy it might be!

Date:

Astronomy

Jul. 09, 2013 Rise Set
Actual Time 6:15 AM CDT 8:43 PM CDT
Civil Twilight 5:45 AM CDT 9:12 PM CDT
Nautical Twilight 5:08 AM CDT 9:49 PM CDT
Astronomical Twilight 4:27 AM CDT 10:30 PM CDT
Moon 7:36 AM CDT (7/9) 9:26 PM CDT (7/9)
Length of Visible Light 15h 27m
Length of Day
14h 28m
New Moon, 2% of the Moon is Illuminated
Jul 9
New Moon
Jul 15
First Quarter
Jul 22
Full
Jul 29
Last Quarter
Aug 6
New

Hourly Weather History & Observations

Time (CDT) Temp. Heat Index Dew Point Humidity Pressure Visibility Wind Dir Wind Speed Gust Speed Precip Events Conditions
12:53 AM 79.0 °F - 71.1 °F 77% 30.04 in 10.0 mi Calm Calm - N/A   Clear
1:53 AM 78.1 °F - 70.0 °F 76% 30.02 in 10.0 mi SSW 3.5 mph - N/A   Clear
2:53 AM 80.1 °F 83.2 °F 70.0 °F 71% 30.03 in 10.0 mi South 5.8 mph - N/A   Clear
3:53 AM 81.0 °F 84.4 °F 70.0 °F 69% 30.03 in 10.0 mi South 5.8 mph - N/A   Clear
4:53 AM 78.1 °F - 70.0 °F 76% 30.03 in 10.0 mi South 3.5 mph - N/A   Clear
5:53 AM 75.0 °F - 70.0 °F 84% 30.03 in 10.0 mi Calm Calm - N/A   Clear
6:53 AM 75.9 °F - 70.0 °F 82% 30.04 in 10.0 mi SSW 3.5 mph - N/A   Clear
7:53 AM 81.0 °F 84.1 °F 69.1 °F 67% 30.05 in 10.0 mi South 8.1 mph - N/A   Clear
8:53 AM 84.0 °F 87.8 °F 69.1 °F 61% 30.06 in 10.0 mi SSW 11.5 mph - N/A   Clear
9:53 AM 88.0 °F 92.1 °F 69.1 °F 53% 30.05 in 10.0 mi South 11.5 mph - N/A   Clear
10:53 AM 91.0 °F 95.6 °F 69.1 °F 48% 30.05 in 10.0 mi SSW 10.4 mph - N/A   Clear
11:53 AM 93.9 °F 100.3 °F 70.0 °F 46% 30.04 in 10.0 mi South 10.4 mph - N/A   Clear
12:53 PM 96.1 °F 102.9 °F 70.0 °F 43% 30.02 in 10.0 mi SSW 11.5 mph - N/A   Clear
1:53 PM 98.1 °F 105.0 °F 70.0 °F 40% 30.00 in 10.0 mi SSW 15.0 mph 19.6 mph N/A   Clear
2:53 PM 99.0 °F 105.5 °F 69.1 °F 38% 29.99 in 10.0 mi SSW 13.8 mph 19.6 mph N/A   Clear
3:53 PM 99.0 °F 106.2 °F 70.0 °F 39% 29.97 in 10.0 mi SSW 11.5 mph 17.3 mph N/A   Clear
4:53 PM 98.1 °F 105.0 °F 70.0 °F 40% 29.96 in 10.0 mi SSW 10.4 mph 19.6 mph N/A   Clear
5:53 PM 99.0 °F 105.5 °F 69.1 °F 38% 29.96 in 10.0 mi SSW 12.7 mph - N/A   Partly Cloudy
6:53 PM 97.0 °F 102.8 °F 69.1 °F 40% 29.95 in 10.0 mi SSW 9.2 mph - N/A   Clear
7:53 PM 96.1 °F 101.6 °F 69.1 °F 41% 29.94 in 10.0 mi SSW 9.2 mph - N/A   Clear
8:53 PM 93.0 °F 99.0 °F 70.0 °F 47% 29.94 in 10.0 mi South 6.9 mph - N/A   Clear
9:53 PM 90.0 °F 95.4 °F 70.0 °F 52% 29.95 in 10.0 mi South 6.9 mph - N/A   Clear
10:53 PM 88.0 °F 92.9 °F 70.0 °F 55% 29.97 in 10.0 mi South 8.1 mph - N/A   Clear
11:53 PM 84.9 °F 88.8 °F 69.1 °F 59% 29.98 in 10.0 mi SSW 4.6 mph - N/A   Clear